This is the latest recevied weather packets stored in our database for station/object K9MWD. If no packets are shown the sender has not sent any weather packets the latest 10 day(s).
| Time | Temp. | Humidity | Pressure | Rain* | Wind** | Luminosity | Snow |
|---|---|---|---|---|---|---|---|
| 1788619861 | 30° C | 68% | 1014.5 hPa | 0 mm | - | 456 W/m² | - |
| 1788619556 | 30° C | 68% | 1014.8 hPa | 0 mm | - | 441 W/m² | - |
| 1788619250 | 30° C | 69% | 1014.6 hPa | 0 mm | - | 423 W/m² | - |
| 1788618949 | 28.89° C | 72% | 1015 hPa | 0 mm | - | 405 W/m² | - |
| 1788618645 | 29.44° C | 72% | 1015.1 hPa | 0 mm | - | 386 W/m² | - |
| 1788618343 | 28.89° C | 72% | 1014.7 hPa | 0 mm | - | 369 W/m² | - |
| 1788618038 | 28.89° C | 73% | 1015 hPa | 0 mm | - | 351 W/m² | - |
| 1788617732 | 28.89° C | 74% | 1015 hPa | 0 mm | - | 328 W/m² | - |
| 1788617430 | 28.89° C | 73% | 1014.8 hPa | 0 mm | - | 311 W/m² | - |
| 1788617129 | 28.89° C | 73% | 1015.2 hPa | 0 mm | - | 292 W/m² | - |
| 1788616828 | 28.33° C | 75% | 1015.1 hPa | 0 mm | - | 64 W/m² | - |
| 1788616524 | 27.78° C | 75% | 1014.8 hPa | 0 mm | - | 226 W/m² | - |
| 1788616219 | 27.78° C | 76% | 1014.7 hPa | 0 mm | - | 235 W/m² | - |
| 1788615914 | 26.67° C | 78% | 1014.6 hPa | 0 mm | - | 214 W/m² | - |
| 1788615613 | 26.67° C | 77% | 1014.7 hPa | 0 mm | - | 209 W/m² | - |
| 1788615309 | 25.56° C | 79% | 1014.6 hPa | 0 mm | - | 120 W/m² | - |
| 1788615008 | 25° C | 81% | 1014.4 hPa | 0 mm | - | 140 W/m² | - |
| 1788614703 | 24.44° C | 81% | 1014.4 hPa | 0 mm | - | 79 W/m² | - |
| 1788614402 | 24.44° C | 81% | 1014.4 hPa | 0 mm | - | 57 W/m² | - |
| 1788614098 | 24.44° C | 81% | 1014.5 hPa | 0 mm | - | 47 W/m² | - |
| 1788613793 | 24.44° C | 81% | 1014.5 hPa | 0 mm | - | 43 W/m² | - |
| 1788613492 | 24.44° C | 82% | 1014.6 hPa | 0 mm | - | 47 W/m² | - |
| 1788613192 | 24.44° C | 82% | 1014.4 hPa | 0 mm | - | 43 W/m² | - |
| 1788612887 | 24.44° C | 82% | 1014.4 hPa | 0 mm | - | 33 W/m² | - |
| 1788612582 | 24.44° C | 82% | 1014.6 hPa | 0 mm | - | 30 W/m² | - |
* Rain latest hour (hover to see other rain measurements)
** Current wind speed in m/s (hover to see current wind gust speed)